Location: ??????????
(31.2156°N, 29.9553°E)
Time: 05:06:11
(UTC+00:00)

Okean 1 - Pass Details

Date: 03 March 2021
Orbit: 539 x 554 km, 82.5° (Epoch: 14 April)

Event Time Altitude Azimuth Distance (km) Brightness Sun altitude
Rises 16:21:56 0° 7° (N) 2,726 6.7 -5.5°
Reaches altitude 10° 16:24:20 10° 19° (NNE) 1,830 5.8 -6.0°
Maximum altitude 16:27:49 28° 79° (E) 1,057 4.2 -6.8°
Drops below altitude 10° 16:31:18 10° 140° (SE) 1,826 5.6 -7.5°
Sets 16:33:41 0° 152° (SSE) 2,717 6.6 -8.0°
